OK2ILA-6 Weather Reports


time (UTC)temp
F
wind
direction
speed
knots
gust
knots
rain 1hr
in
rain 24hr
in
rain mn
in
humidity
%
barometer
mb
20260506205002 67 0.0 0.0 0.00 0.00 0.00 60 1005.0
20260506204003 68 0.0 0.0 0.00 0.00 0.00 58 1004.9
20260506203003 68 0.0 0.0 0.00 0.00 0.00 58 1005.0
20260506202003 68 0.0 0.0 0.00 0.00 0.00 58 1004.8
20260506201002 68 0.0 0.0 0.00 0.00 0.00 58 1004.8
20260506200003 68 0.0 0.0 0.00 0.00 0.00 58 1004.7
20260506195003 67 0.0 0.0 0.00 0.00 0.00 60 1004.8
20260506194003 67 0.0 0.0 0.00 0.00 0.00 60 1004.6
20260506193002 67 0.0 0.0 0.00 0.00 0.00 59 1004.6
20260506192002 68 0.0 0.0 0.00 0.00 0.00 59 1004.6
20260506191003 68 0.0 0.0 0.00 0.00 0.00 58 1004.6
20260506190003 68 0.0 0.0 0.00 0.00 0.00 57 1004.3
20260506185003 69 0.0 0.0 0.00 0.00 0.00 56 1004.2
20260506184002 69 0.0 0.0 0.00 0.00 0.00 56 1004.2
20260506183002 69 0.0 0.0 0.00 0.00 0.00 56 1004.0
20260506182003 70 0.0 0.0 0.00 0.00 0.00 54 1003.8
20260506181003 70 0.0 0.0 0.00 0.00 0.00 55 1003.8
20260506180003 70 0.0 0.0 0.00 0.00 0.00 54 1003.8
20260506175002 71 0.0 0.0 0.00 0.00 0.00 54 1003.8
20260506174003 72 0.0 0.0 0.00 0.00 0.00 53 1003.9
20260506173003 72 0.0 0.0 0.00 0.00 0.00 52 1003.8
20260506172003 73 0.0 0.0 0.00 0.00 0.00 51 1004.0
20260506171002 74 0.0 0.0 0.00 0.00 0.00 50 1004.2
20260506170002 74 0.0 0.0 0.00 0.00 0.00 50 1004.1
20260506165003 74 0.0 0.0 0.00 0.00 0.00 48 1004.2
20260506164003 75 0.0 0.0 0.00 0.00 0.00 48 1004.2
20260506163002 75 0.0 0.0 0.00 0.00 0.00 48 1004.2
20260506162002 75 0.0 0.0 0.00 0.00 0.00 49 1004.2
20260506161003 76 0.0 0.0 0.00 0.00 0.00 48 1004.4
20260506160003 77 0.0 0.0 0.00 0.00 0.00 48 1004.6
20260506155003 76 0.0 0.0 0.00 0.00 0.00 49 1004.8
20260506154002 74 0.0 0.0 0.00 0.00 0.00 50 1005.0
20260506153002 74 0.0 0.0 0.00 0.00 0.00 49 1005.0
20260506152003 76 0.0 0.0 0.00 0.00 0.00 50 1005.0
20260506151003 76 0.0 0.0 0.00 0.00 0.00 50 1005.2
20260506150003 76 0.0 0.0 0.00 0.00 0.00 46 1005.2
20260506145002 76 0.0 0.0 0.00 0.00 0.00 46 1005.4
20260506144003 76 0.0 0.0 0.00 0.00 0.00 46 1005.4
20260506143003 76 0.0 0.0 0.00 0.00 0.00 46 1005.4
20260506142003 76 0.0 0.0 0.00 0.00 0.00 46 1005.6
20260506141002 76 0.0 0.0 0.00 0.00 0.00 45 1005.6
20260506140002 78 0.0 0.0 0.00 0.00 0.00 44 1005.6
20260506135003 78 0.0 0.0 0.00 0.00 0.00 43 1005.6
20260506134003 78 0.0 0.0 0.00 0.00 0.00 42 1005.8
20260506133002 77 0.0 0.0 0.00 0.00 0.00 43 1005.9
20260506132002 77 0.0 0.0 0.00 0.00 0.00 44 1006.1
20260506131003 78 0.0 0.0 0.00 0.00 0.00 42 1006.0
20260506130003 80 0.0 0.0 0.00 0.00 0.00 42 1006.0
20260506125003 80 0.0 0.0 0.00 0.00 0.00 40 1005.9
20260506124002 80 0.0 0.0 0.00 0.00 0.00 42 1006.1
20260506123002 80 0.0 0.0 0.00 0.00 0.00 44 1006.0
20260506122003 80 0.0 0.0 0.00 0.00 0.00 43 1006.2
20260506121003 79 0.0 0.0 0.00 0.00 0.00 42 1006.1
20260506120003 78 0.0 0.0 0.00 0.00 0.00 42 1006.1
20260506115002 79 0.0 0.0 0.00 0.00 0.00 42 1006.0
20260506114003 78 0.0 0.0 0.00 0.00 0.00 44 1006.0
20260506113003 78 0.0 0.0 0.00 0.00 0.00 44 1006.2
20260506112003 78 0.0 0.0 0.00 0.00 0.00 42 1006.2
20260506111003 78 0.0 0.0 0.00 0.00 0.00 42 1006.2
20260506110002 78 0.0 0.0 0.00 0.00 0.00 44 1006.2
20260506105003 77 0.0 0.0 0.00 0.00 0.00 45 1006.2
20260506104003 78 0.0 0.0 0.00 0.00 0.00 46 1006.0
20260506103003 78 0.0 0.0 0.00 0.00 0.00 46 1006.2
20260506102002 78 0.0 0.0 0.00 0.00 0.00 47 1006.2
20260506101003 77 0.0 0.0 0.00 0.00 0.00 48 1006.4
20260506100003 74 0.0 0.0 0.00 0.00 0.00 52 1006.6
20260506095003 76 0.0 0.0 0.00 0.00 0.00 50 1006.6
20260506094003 76 0.0 0.0 0.00 0.00 0.00 50 1006.8
20260506093002 74 0.0 0.0 0.00 0.00 0.00 54 1006.8
20260506092003 73 0.0 0.0 0.00 0.00 0.00 52 1006.8
20260506091003 74 0.0 0.0 0.00 0.00 0.00 52 1006.6
20260506090003 74 0.0 0.0 0.00 0.00 0.00 50 1006.8
20260506085002 73 0.0 0.0 0.00 0.00 0.00 52 1006.6
20260506084003 74 0.0 0.0 0.00 0.00 0.00 52 1006.4
20260506083003 74 0.0 0.0 0.00 0.00 0.00 53 1006.2
20260506082003 74 0.0 0.0 0.00 0.00 0.00 52 1006.2
20260506081002 74 0.0 0.0 0.00 0.00 0.00 54 1006.2
20260506073003 70 0.0 0.0 0.00 0.00 0.00 58 1006.1
20260506072002 70 0.0 0.0 0.00 0.00 0.00 59 1006.1
20260506071002 69 0.0 0.0 0.00 0.00 0.00 60 1006.2
20260506062002 66 0.0 0.0 0.00 0.00 0.00 64 1005.8
20260506061003 66 0.0 0.0 0.00 0.00 0.00 64 1006.0
20260506024538 57 0.0 0.0 0.00 0.00 0.00 73 1004.8
20260506023003 58 0.0 0.0 0.00 0.00 0.00 72 1004.8
20260506022002 57 0.0 0.0 0.00 0.00 0.00 72 1005.0
20260506021003 58 0.0 0.0 0.00 0.00 0.00 70 1005.0
20260506020003 58 0.0 0.0 0.00 0.00 0.00 70 1005.0
20260506015003 58 0.0 0.0 0.00 0.00 0.00 70 1004.9
20260506014002 58 0.0 0.0 0.00 0.00 0.00 70 1005.0
20260506013002 58 0.0 0.0 0.00 0.00 0.00 69 1005.1
20260506012003 58 0.0 0.0 0.00 0.00 0.00 69 1005.0
20260506011003 58 0.0 0.0 0.00 0.00 0.00 69 1004.9
20260506010002 58 0.0 0.0 0.00 0.00 0.00 68 1005.0
20260506005002 60 0.0 0.0 0.00 0.00 0.00 67 1005.0
20260506004002 59 0.0 0.0 0.00 0.00 0.00 68 1004.8
20260506003003 59 0.0 0.0 0.00 0.00 0.00 67 1004.8
20260506002003 60 0.0 0.0 0.00 0.00 0.00 66 1004.7
20260506001002 60 0.0 0.0 0.00 0.00 0.00 66 1005.0
20260506000002 60 0.0 0.0 0.00 0.00 0.00 64 1004.8
20260505235003 60 0.0 0.0 0.00 0.00 0.00 64 1005.1
20260505234003 60 0.0 0.0 0.00 0.00 0.00 64 1005.2
20260505233003 60 0.0 0.0 0.00 0.00 0.00 64 1005.2
20260505232002 60 0.0 0.0 0.00 0.00 0.00 62 1005.2
20260505231002 62 0.0 0.0 0.00 0.00 0.00 61 1005.2
20260505230003 62 0.0 0.0 0.00 0.00 0.00 61 1005.3
20260505225003 62 0.0 0.0 0.00 0.00 0.00 60 1005.4
20260505224002 62 0.0 0.0 0.00 0.00 0.00 60 1005.4
20260505223002 62 0.0 0.0 0.00 0.00 0.00 58 1005.3
20260505222003 62 0.0 0.0 0.00 0.00 0.00 57 1005.4
20260505221003 62 0.0 0.0 0.00 0.00 0.00 56 1005.5
20260505220003 62 0.0 0.0 0.00 0.00 0.00 56 1005.4
20260505215002 63 0.0 0.0 0.00 0.00 0.00 55 1005.5
20260505214002 64 0.0 0.0 0.00 0.00 0.00 54 1005.8
20260505213003 64 0.0 0.0 0.00 0.00 0.00 54 1005.8
20260505212003 64 0.0 0.0 0.00 0.00 0.00 52 1005.6
20260505211003 64 0.0 0.0 0.00 0.00 0.00 52 1005.6
20260505210002 65 0.0 0.0 0.00 0.00 0.00 52 1005.4